UAE12 EGKK-OMDB

Flight info

Callsign UAE12
Flight time 7h 23m
Altitude 35000
Route SFD Y47 BENBO L612 HAWKE UL612 VEULE DCT KOTAP DCT KETEX DCT KOTIS DCT KUKOR DCT UTUVA DCT TITVA DCT NOQAS DCT OTROT DCT RETNO DCT KOLON DCT RAPUR DCT RATAP DCT BTA DCT DOKAR DCT SUNEV DCT VELAD DCT MAMAR DCT ROTUN DCT NERAR DCT ORTAP DCT ARLOS/N0478F370 UN4 SALUN N705 MMA P751 DASUM Y234 FYM M872 MEDRO/N0472F390 M872 BDB Y214 RAPMA DCT KUVSO DCT KATIT DCT PEKEM M628 RIGIL G783 ELUDA/N0486F350 G783 ASPED Q308 KIPOK Q568 IMPED
Aircraft A339/H-SADE1E2E3GHIJ3J5M1P2RWXY/LB2D1

Departure

Time 2026-04-25 16:58
Airport London Gatwick Airport (EGKK)

Arrival

Time 2026-04-26 00:21
Airport Dubai International Airport (OMDB)
Time Latitude Longitude Altitude Speed Heading
2026-04-25 15:45 51.15662 -0.17611 211 ft 0 kts 168°
2026-04-25 16:33 51.15667 -0.17613 215 ft 4 kts 167°
2026-04-25 16:33 51.15693 -0.17624 213 ft 4 kts 164°
2026-04-25 16:33 51.15716 -0.17634 222 ft 4 kts 191°
2026-04-25 16:33 51.15737 -0.17628 217 ft 4 kts 219°
2026-04-25 16:34 51.15751 -0.17606 212 ft 4 kts 261°
2026-04-25 16:34 51.15754 -0.17570 215 ft 1 kts 257°
2026-04-25 16:34 51.15755 -0.17563 211 ft 0 kts 257°
2026-04-25 16:39 51.15754 -0.17569 220 ft 1 kts 257°
2026-04-25 16:39 51.15752 -0.17582 219 ft 2 kts 257°
2026-04-25 16:39 51.15749 -0.17604 215 ft 2 kts 257°
2026-04-25 16:39 51.15745 -0.17633 217 ft 3 kts 257°
2026-04-25 16:40 51.15740 -0.17671 217 ft 4 kts 257°
2026-04-25 16:40 51.15733 -0.17717 220 ft 5 kts 257°
2026-04-25 16:40 51.15726 -0.17771 212 ft 5 kts 257°
2026-04-25 16:40 51.15717 -0.17833 218 ft 7 kts 257°
2026-04-25 16:41 51.15705 -0.17924 218 ft 10 kts 257°
2026-04-25 16:41 51.15700 -0.17960 214 ft 11 kts 257°
2026-04-25 16:41 51.15657 -0.18264 214 ft 10 kts 257°
2026-04-25 16:42 51.15626 -0.18346 217 ft 8 kts 208°
2026-04-25 16:42 51.15570 -0.18346 218 ft 8 kts 172°
2026-04-25 16:42 51.15516 -0.18328 213 ft 8 kts 168°
2026-04-25 16:42 51.15477 -0.18315 217 ft 2 kts 168°
2026-04-25 16:43 51.15463 -0.18310 216 ft 2 kts 167°
2026-04-25 16:43 51.15444 -0.18303 218 ft 3 kts 167°
2026-04-25 16:43 51.15403 -0.18287 216 ft 11 kts 166°
2026-04-25 16:43 51.15301 -0.18249 218 ft 17 kts 167°
2026-04-25 16:44 51.15200 -0.18256 214 ft 13 kts 225°
2026-04-25 16:44 51.15176 -0.18393 213 ft 13 kts 258°
2026-04-25 16:44 51.15157 -0.18533 215 ft 13 kts 258°
2026-04-25 16:44 51.15138 -0.18675 213 ft 13 kts 258°
2026-04-25 16:45 51.15117 -0.18837 215 ft 19 kts 258°
2026-04-25 16:45 51.15086 -0.19065 219 ft 22 kts 257°
2026-04-25 16:45 51.15053 -0.19239 218 ft 5 kts 236°
2026-04-25 16:45 51.15017 -0.19262 218 ft 6 kts 190°
2026-04-25 16:46 51.14978 -0.19280 217 ft 6 kts 204°
2026-04-25 16:46 51.14945 -0.19417 218 ft 23 kts 256°
2026-04-25 16:46 51.14906 -0.19690 218 ft 25 kts 257°
2026-04-25 16:46 51.14894 -0.19780 219 ft 25 kts 257°
2026-04-25 16:47 51.14843 -0.20146 210 ft 18 kts 258°
2026-04-25 16:47 51.14817 -0.20342 214 ft 18 kts 257°
2026-04-25 16:47 51.14791 -0.20529 216 ft 17 kts 258°
2026-04-25 16:47 51.14767 -0.20710 214 ft 17 kts 258°
2026-04-25 16:48 51.14747 -0.20856 216 ft 11 kts 258°
2026-04-25 16:48 51.14737 -0.20931 216 ft 10 kts 258°
2026-04-25 16:48 51.14716 -0.21086 217 ft 11 kts 256°
2026-04-25 16:48 51.14704 -0.21164 211 ft 11 kts 257°
2026-04-25 16:49 51.14699 -0.21203 216 ft 0 kts 257°
2026-04-25 16:49 51.14699 -0.21204 217 ft 0 kts 257°
2026-04-25 16:49 51.14697 -0.21214 215 ft 3 kts 257°
2026-04-25 16:50 51.14677 -0.21315 217 ft 14 kts 238°
2026-04-25 16:50 51.14616 -0.21330 216 ft 0 kts 172°
2026-04-25 16:55 51.14614 -0.21329 211 ft 0 kts 171°
2026-04-25 16:55 51.14607 -0.21327 220 ft 3 kts 171°
2026-04-25 16:55 51.14557 -0.21286 220 ft 13 kts 135°
2026-04-25 16:56 51.14522 -0.21182 217 ft 7 kts 78°
2026-04-25 16:56 51.14523 -0.21174 218 ft 0 kts 78°
2026-04-25 16:57 51.14525 -0.21160 220 ft 7 kts 78°
2026-04-25 16:57 51.14591 -0.20685 220 ft 82 kts 77°
2026-04-25 16:58 51.14764 -0.19430 215 ft 147 kts 78°
2026-04-25 16:58 51.15010 -0.17607 322 ft 184 kts 78°
2026-04-25 16:58 51.15286 -0.15614 1009 ft 181 kts 77°
2026-04-25 16:58 51.15569 -0.13641 1699 ft 184 kts 77°
2026-04-25 16:59 51.15864 -0.11610 2228 ft 195 kts 77°
2026-04-25 16:59 51.16134 -0.09397 2510 ft 214 kts 85°
2026-04-25 16:59 51.15838 -0.07003 2824 ft 228 kts 117°
2026-04-25 16:59 51.14776 -0.05124 3368 ft 233 kts 148°
2026-04-25 17:00 51.13251 -0.04268 3967 ft 237 kts 170°
2026-04-25 17:00 51.11552 -0.03880 4211 ft 257 kts 173°
2026-04-25 17:00 51.09725 -0.03501 4492 ft 270 kts 171°
2026-04-25 17:00 51.07885 -0.02818 5027 ft 273 kts 165°
2026-04-25 17:01 51.06046 -0.01988 5592 ft 275 kts 163°
2026-04-25 17:01 51.04220 -0.01130 5907 ft 278 kts 163°
2026-04-25 17:01 51.02363 -0.00244 5996 ft 279 kts 163°
2026-04-25 17:01 51.00493 0.00650 6011 ft 281 kts 163°
2026-04-25 17:02 50.98605 0.01554 6011 ft 279 kts 163°
2026-04-25 17:02 50.96769 0.02428 6013 ft 279 kts 163°
2026-04-25 17:02 50.94909 0.03309 6011 ft 279 kts 163°
2026-04-25 17:02 50.93653 0.03903 6007 ft 279 kts 163°
2026-04-25 17:03 50.91189 0.05068 6005 ft 279 kts 163°
2026-04-25 17:03 50.89325 0.05948 6005 ft 279 kts 163°
2026-04-25 17:03 50.87470 0.06824 6007 ft 279 kts 163°
2026-04-25 17:03 50.85614 0.07700 6011 ft 277 kts 163°
2026-04-25 17:04 50.83758 0.08570 6008 ft 279 kts 163°
2026-04-25 17:04 50.81896 0.09440 6009 ft 278 kts 163°
2026-04-25 17:04 50.80046 0.10308 6008 ft 277 kts 163°
2026-04-25 17:04 50.78196 0.11176 6007 ft 277 kts 163°
2026-04-25 17:05 50.76309 0.11842 6040 ft 280 kts 176°
2026-04-25 17:05 50.72476 0.10878 7097 ft 281 kts 194°
2026-04-25 17:05 50.70569 0.10157 7652 ft 283 kts 194°
2026-04-25 17:06 50.68643 0.09458 8198 ft 285 kts 194°
2026-04-25 17:06 50.66704 0.08763 8770 ft 287 kts 194°
2026-04-25 17:06 50.64751 0.08064 9313 ft 289 kts 194°
2026-04-25 17:06 50.62782 0.07357 9902 ft 291 kts 194°
2026-04-25 17:07 50.60798 0.06644 10384 ft 295 kts 194°
2026-04-25 17:07 50.58739 0.05902 10553 ft 312 kts 194°
2026-04-25 17:07 50.56566 0.05118 10702 ft 328 kts 194°
2026-04-25 17:07 50.54291 0.04299 10898 ft 341 kts 194°
2026-04-25 17:08 50.51968 0.03465 11367 ft 344 kts 194°
2026-04-25 17:08 50.49659 0.02638 11861 ft 346 kts 194°
2026-04-25 17:08 50.47301 0.01794 12360 ft 349 kts 194°
2026-04-25 17:08 50.44929 0.00946 12844 ft 351 kts 194°
2026-04-25 17:09 50.42535 0.00115 13332 ft 354 kts 191°
2026-04-25 17:09 50.40060 0.00128 13804 ft 360 kts 171°
2026-04-25 17:09 50.37692 0.01466 14232 ft 366 kts 151°
2026-04-25 17:09 50.35628 0.03828 14664 ft 370 kts 140°
2026-04-25 17:10 50.33741 0.06592 15082 ft 373 kts 136°
2026-04-25 17:10 50.31893 0.09469 15499 ft 376 kts 136°
2026-04-25 17:10 50.30026 0.12353 15922 ft 378 kts 136°
2026-04-25 17:10 50.28126 0.15223 16341 ft 381 kts 137°
2026-04-25 17:11 50.26199 0.18082 16762 ft 384 kts 137°
2026-04-25 17:11 50.24248 0.20948 17185 ft 386 kts 137°
2026-04-25 17:11 50.22280 0.23825 17583 ft 389 kts 137°
2026-04-25 17:11 50.20254 0.26638 17985 ft 391 kts 143°
2026-04-25 17:12 50.18012 0.29048 18409 ft 392 kts 148°
2026-04-25 17:12 50.15715 0.31369 18789 ft 395 kts 148°
2026-04-25 17:12 50.13411 0.33719 19167 ft 396 kts 148°
2026-04-25 17:12 50.11102 0.36085 19568 ft 398 kts 148°
2026-04-25 17:13 50.08785 0.38459 19962 ft 400 kts 148°
2026-04-25 17:13 50.08000 0.39264 20075 ft 401 kts 148°
2026-04-25 17:13 50.04113 0.43243 20736 ft 404 kts 148°
2026-04-25 17:13 50.01760 0.45646 21116 ft 406 kts 148°
2026-04-25 17:14 49.99399 0.48056 21547 ft 407 kts 148°
2026-04-25 17:14 49.97024 0.50476 21918 ft 409 kts 148°
2026-04-25 17:14 49.94638 0.52904 22326 ft 410 kts 149°
2026-04-25 17:14 49.92251 0.55329 22709 ft 413 kts 149°
2026-04-25 17:15 49.89831 0.57786 23095 ft 415 kts 149°
2026-04-25 17:15 49.87408 0.60243 23486 ft 417 kts 149°
2026-04-25 17:15 49.84973 0.62711 23860 ft 420 kts 148°
2026-04-25 17:15 49.82566 0.65293 24186 ft 422 kts 146°
2026-04-25 17:16 49.80179 0.67973 24518 ft 424 kts 146°
2026-04-25 17:16 49.77799 0.70662 24841 ft 426 kts 146°
2026-04-25 17:16 49.75384 0.73372 25169 ft 428 kts 146°
2026-04-25 17:16 49.72959 0.76071 25530 ft 429 kts 147°
2026-04-25 17:17 49.70527 0.78763 25881 ft 431 kts 147°
2026-04-25 17:17 49.68078 0.81462 26174 ft 433 kts 147°
2026-04-25 17:17 49.65618 0.84168 26488 ft 435 kts 147°
2026-04-25 17:17 49.63148 0.86881 26806 ft 437 kts 147°
2026-04-25 17:18 49.60660 0.89610 27112 ft 439 kts 147°
2026-04-25 17:18 49.58167 0.92340 27447 ft 441 kts 147°
2026-04-25 17:18 49.55660 0.95082 27736 ft 443 kts 148°
2026-04-25 17:18 49.53144 0.97833 28035 ft 445 kts 148°
2026-04-25 17:19 49.50618 1.00593 28333 ft 446 kts 148°
2026-04-25 17:19 49.48078 1.03364 28615 ft 448 kts 148°
2026-04-25 17:19 49.45569 1.06097 28895 ft 450 kts 148°
2026-04-25 17:19 49.43004 1.08884 29187 ft 452 kts 148°
2026-04-25 17:20 49.41267 1.10771 29367 ft 453 kts 148°
2026-04-25 17:20 49.37905 1.14419 29745 ft 455 kts 148°
2026-04-25 17:20 49.35258 1.17287 30037 ft 457 kts 148°
2026-04-25 17:20 49.32653 1.20104 30311 ft 459 kts 148°
2026-04-25 17:21 49.30040 1.22928 30567 ft 460 kts 148°
2026-04-25 17:21 49.27423 1.25753 30929 ft 459 kts 148°
2026-04-25 17:21 49.24805 1.28575 31164 ft 461 kts 148°
2026-04-25 17:21 49.22176 1.31403 31413 ft 463 kts 148°
2026-04-25 17:22 49.19531 1.34244 31618 ft 466 kts 148°
2026-04-25 17:22 49.18634 1.35207 31675 ft 467 kts 148°
2026-04-25 17:22 49.14206 1.39955 32101 ft 469 kts 148°
2026-04-25 17:22 49.11539 1.42810 32351 ft 470 kts 148°
2026-04-25 17:23 49.08846 1.45687 32574 ft 472 kts 148°
2026-04-25 17:23 49.06156 1.48558 32768 ft 473 kts 148°
2026-04-25 17:23 49.03460 1.51432 32969 ft 473 kts 148°
2026-04-25 17:23 49.00756 1.54310 33134 ft 475 kts 148°
2026-04-25 17:24 48.98040 1.57197 33263 ft 476 kts 148°
2026-04-25 17:24 48.95321 1.60084 33409 ft 477 kts 148°
2026-04-25 17:24 48.92593 1.62976 33528 ft 478 kts 148°
2026-04-25 17:24 48.89862 1.65868 33652 ft 479 kts 148°
2026-04-25 17:25 48.87128 1.68759 33805 ft 479 kts 148°
2026-04-25 17:25 48.84397 1.71643 33961 ft 478 kts 148°
2026-04-25 17:25 48.81664 1.74526 34107 ft 478 kts 148°
2026-04-25 17:25 48.78942 1.77391 34269 ft 477 kts 148°
2026-04-25 17:26 48.76209 1.80265 34407 ft 477 kts 148°
2026-04-25 17:26 48.73486 1.83125 34529 ft 477 kts 148°
2026-04-25 17:26 48.70760 1.85984 34651 ft 476 kts 148°
2026-04-25 17:26 48.68032 1.88841 34764 ft 476 kts 148°
2026-04-25 17:27 48.65307 1.91692 34888 ft 476 kts 148°
2026-04-25 17:27 48.62585 1.94536 35011 ft 476 kts 148°
2026-04-25 17:27 48.58981 1.98294 35118 ft 475 kts 148°
2026-04-25 17:28 48.51713 2.05855 35121 ft 474 kts 148°
2026-04-25 17:28 48.46280 2.11489 35121 ft 474 kts 148°
2026-04-25 17:29 48.40837 2.17119 35108 ft 476 kts 148°
2026-04-25 17:29 48.35397 2.22728 35124 ft 478 kts 148°
2026-04-25 17:30 48.29836 2.28162 35140 ft 475 kts 155°
2026-04-25 17:30 48.23759 2.31893 35131 ft 470 kts 167°
2026-04-25 17:31 48.17436 2.34340 35117 ft 470 kts 168°
2026-04-25 17:31 48.11141 2.37019 35129 ft 471 kts 164°
2026-04-25 17:32 48.04922 2.40145 35130 ft 472 kts 164°
2026-04-25 17:32 47.98693 2.43249 35124 ft 472 kts 164°
2026-04-25 17:33 47.92467 2.46334 35129 ft 472 kts 164°
2026-04-25 17:33 47.86220 2.49422 35130 ft 472 kts 164°
2026-04-25 17:34 47.79982 2.52499 35118 ft 472 kts 164°
2026-04-25 17:34 47.73749 2.55563 35118 ft 472 kts 164°
2026-04-25 17:35 47.67524 2.58617 35119 ft 471 kts 164°
2026-04-25 17:35 47.61291 2.61668 35118 ft 471 kts 164°
2026-04-25 17:36 47.56115 2.64196 35112 ft 471 kts 164°
2026-04-25 17:36 47.49887 2.67229 35116 ft 471 kts 164°
2026-04-25 17:37 47.43657 2.70256 35110 ft 471 kts 164°
2026-04-25 17:37 47.37423 2.73277 35111 ft 471 kts 164°
2026-04-25 17:38 47.32250 2.75779 35103 ft 471 kts 164°
2026-04-25 17:38 47.24958 2.79297 35105 ft 471 kts 164°
2026-04-25 17:39 47.18723 2.82296 35105 ft 471 kts 164°
2026-04-25 17:39 47.12490 2.85287 35097 ft 472 kts 164°
2026-04-25 17:40 47.06244 2.88275 35100 ft 472 kts 164°
2026-04-25 17:40 47.00000 2.91256 35101 ft 472 kts 164°
2026-04-25 17:41 46.93757 2.94229 35100 ft 472 kts 164°
2026-04-25 17:41 46.87509 2.97197 35101 ft 472 kts 164°
2026-04-25 17:42 46.81255 3.00161 35100 ft 472 kts 164°
2026-04-25 17:42 46.75039 3.03099 35100 ft 472 kts 164°
2026-04-25 17:43 46.68785 3.06050 35103 ft 473 kts 164°
2026-04-25 17:43 46.62524 3.08996 35101 ft 473 kts 164°
2026-04-25 17:44 46.56263 3.11934 35100 ft 473 kts 164°
2026-04-25 17:44 46.50031 3.15008 35094 ft 474 kts 162°
2026-04-25 17:45 46.44863 3.17868 35096 ft 474 kts 161°
2026-04-25 17:45 46.37685 3.21793 35103 ft 474 kts 161°
2026-04-25 17:46 46.31496 3.25120 35097 ft 474 kts 162°
2026-04-25 17:46 46.25305 3.28431 35103 ft 474 kts 162°
2026-04-25 17:47 46.19108 3.31738 35105 ft 475 kts 162°
2026-04-25 17:47 46.12914 3.35035 35104 ft 475 kts 162°
2026-04-25 17:48 46.03608 3.39975 35099 ft 475 kts 162°
2026-04-25 17:49 45.97397 3.43263 35102 ft 476 kts 162°
2026-04-25 17:49 45.91182 3.46544 35100 ft 476 kts 162°
2026-04-25 17:50 45.85091 3.50304 35096 ft 479 kts 152°
2026-04-25 17:50 45.79523 3.55490 35099 ft 481 kts 148°
2026-04-25 17:51 45.73945 3.60778 35103 ft 481 kts 148°
2026-04-25 17:51 45.68350 3.66037 35093 ft 482 kts 148°
2026-04-25 17:52 45.62729 3.71302 35095 ft 483 kts 148°
2026-04-25 17:52 45.57105 3.76557 35102 ft 483 kts 148°
2026-04-25 17:53 45.51469 3.81813 35103 ft 484 kts 149°
2026-04-25 17:53 45.45836 3.87053 35110 ft 484 kts 149°
2026-04-25 17:54 45.40209 3.92283 35101 ft 481 kts 148°
2026-04-25 17:54 45.35128 3.98512 35100 ft 485 kts 133°
2026-04-25 17:55 45.31053 4.06161 35091 ft 486 kts 126°
2026-04-25 17:55 45.27099 4.13962 35095 ft 487 kts 127°
2026-04-25 17:56 45.23114 4.21743 35092 ft 487 kts 127°
2026-04-25 17:56 45.19130 4.29495 35092 ft 486 kts 127°
2026-04-25 17:57 45.15145 4.37229 35082 ft 485 kts 127°
2026-04-25 17:57 45.11144 4.44911 35076 ft 485 kts 130°
2026-04-25 17:58 45.06740 4.52126 35059 ft 485 kts 132°
2026-04-25 17:58 45.02320 4.59340 35053 ft 485 kts 132°
2026-04-25 17:59 44.97904 4.66538 35048 ft 485 kts 132°
2026-04-25 17:59 44.93510 4.73679 35040 ft 485 kts 132°
2026-04-25 18:00 44.89082 4.80856 35028 ft 485 kts 132°
2026-04-25 18:00 44.84645 4.88027 35037 ft 486 kts 132°
2026-04-25 18:01 44.80199 4.95201 35052 ft 486 kts 132°
2026-04-25 18:01 44.75743 5.02369 35041 ft 487 kts 133°
2026-04-25 18:02 44.71280 5.09530 35040 ft 487 kts 132°
2026-04-25 18:02 44.66806 5.16689 35042 ft 487 kts 132°
2026-04-25 18:03 44.62330 5.23837 35041 ft 487 kts 133°
2026-04-25 18:03 44.57850 5.30971 35045 ft 487 kts 133°
2026-04-25 18:04 44.53364 5.38094 35057 ft 487 kts 133°
2026-04-25 18:04 44.48870 5.45213 35058 ft 487 kts 133°
2026-04-25 18:05 44.44374 5.52320 35033 ft 488 kts 133°
2026-04-25 18:05 44.39869 5.59423 35038 ft 488 kts 133°
2026-04-25 18:06 44.35736 5.66953 35024 ft 490 kts 125°
2026-04-25 18:06 44.31994 5.74730 35034 ft 489 kts 125°
2026-04-25 18:07 44.28178 5.82600 35028 ft 490 kts 125°
2026-04-25 18:07 44.24375 5.90400 35030 ft 489 kts 125°
2026-04-25 18:08 44.20535 5.98248 35028 ft 490 kts 125°
2026-04-25 18:08 44.16688 6.06094 35027 ft 490 kts 125°
2026-04-25 18:09 44.12837 6.13922 35042 ft 490 kts 125°
2026-04-25 18:09 44.08984 6.21740 35039 ft 490 kts 125°
2026-04-25 18:10 44.05127 6.29544 35046 ft 490 kts 125°
2026-04-25 18:10 44.01266 6.37332 35049 ft 489 kts 125°
2026-04-25 18:11 43.97398 6.45113 35055 ft 489 kts 125°
2026-04-25 18:11 43.93529 6.52880 35061 ft 489 kts 125°
2026-04-25 18:12 43.89660 6.60624 35063 ft 488 kts 125°
2026-04-25 18:12 43.85787 6.68354 35068 ft 488 kts 125°
2026-04-25 18:13 43.81909 6.76076 35070 ft 488 kts 126°
2026-04-25 18:13 43.78029 6.83779 35058 ft 488 kts 126°
2026-04-25 18:14 43.72230 6.95258 35079 ft 487 kts 126°
2026-04-25 18:14 43.68495 7.03063 35075 ft 487 kts 123°
2026-04-25 18:15 43.64859 7.10953 35073 ft 487 kts 123°
2026-04-25 18:15 43.61190 7.18808 35074 ft 487 kts 123°
2026-04-25 18:16 43.57501 7.26638 35080 ft 486 kts 123°
2026-04-25 18:17 43.51972 7.38333 35080 ft 485 kts 123°
2026-04-25 18:17 43.48280 7.46115 35078 ft 485 kts 123°
2026-04-25 18:18 43.44582 7.53891 35078 ft 485 kts 123°
2026-04-25 18:18 43.40881 7.61652 35084 ft 485 kts 123°
2026-04-25 18:19 43.37177 7.69399 35083 ft 485 kts 123°
2026-04-25 18:19 43.33496 7.77078 35086 ft 484 kts 123°
2026-04-25 18:20 43.29785 7.84800 35080 ft 485 kts 123°
2026-04-25 18:20 43.26068 7.92514 35091 ft 484 kts 124°
2026-04-25 18:21 43.22348 8.00214 35091 ft 484 kts 124°
2026-04-25 18:21 43.18624 8.07901 35091 ft 484 kts 124°
2026-04-25 18:22 43.14894 8.15582 35090 ft 484 kts 124°
2026-04-25 18:22 43.11163 8.23244 35093 ft 484 kts 124°
2026-04-25 18:23 43.07429 8.30894 35097 ft 483 kts 124°
2026-04-25 18:23 43.03699 8.38515 35102 ft 483 kts 124°
2026-04-25 18:24 42.99955 8.46144 35100 ft 483 kts 124°
2026-04-25 18:24 42.96212 8.53754 35098 ft 483 kts 124°
2026-04-25 18:25 42.93097 8.60071 35097 ft 483 kts 124°
2026-04-25 18:25 42.89358 8.67674 35097 ft 482 kts 122°
2026-04-25 18:26 42.86139 8.75681 35108 ft 481 kts 118°
2026-04-25 18:26 42.82462 8.85006 35105 ft 481 kts 118°
2026-04-25 18:27 42.79796 8.91709 35099 ft 480 kts 118°
2026-04-25 18:27 42.76628 8.99646 35101 ft 480 kts 118°
2026-04-25 18:28 42.73433 9.07624 35101 ft 480 kts 118°
2026-04-25 18:28 42.70234 9.15595 35108 ft 480 kts 118°
2026-04-25 18:29 42.65434 9.27523 35111 ft 479 kts 118°
2026-04-25 18:30 42.59024 9.43368 35104 ft 478 kts 118°
2026-04-25 18:30 42.56253 9.51537 35110 ft 476 kts 108°
2026-04-25 18:31 42.54054 9.60007 35104 ft 476 kts 109°
2026-04-25 18:31 42.51824 9.68445 35103 ft 475 kts 109°
2026-04-25 18:32 42.49771 9.76939 35099 ft 474 kts 102°
2026-04-25 18:32 42.48143 9.85579 35097 ft 474 kts 110°
2026-04-25 18:33 42.45131 9.93480 35100 ft 475 kts 123°
2026-04-25 18:33 42.41523 10.00974 35100 ft 475 kts 122°
2026-04-25 18:34 42.37942 10.08488 35098 ft 475 kts 122°
2026-04-25 18:34 42.34355 10.15995 35101 ft 476 kts 122°
2026-04-25 18:35 42.30757 10.23503 35111 ft 475 kts 122°
2026-04-25 18:35 42.27154 10.31000 35106 ft 475 kts 123°
2026-04-25 18:36 42.23548 10.38487 35104 ft 476 kts 123°
2026-04-25 18:36 42.19935 10.45966 35107 ft 476 kts 123°
2026-04-25 18:37 42.16320 10.53433 35109 ft 476 kts 123°
2026-04-25 18:37 42.12697 10.60898 35108 ft 476 kts 123°
2026-04-25 18:38 42.09073 10.68343 35112 ft 475 kts 123°
2026-04-25 18:38 42.05373 10.75705 35107 ft 475 kts 128°
2026-04-25 18:39 42.00903 10.82151 35108 ft 475 kts 135°
2026-04-25 18:39 41.96230 10.88430 35101 ft 475 kts 134°
2026-04-25 18:40 41.91568 10.94719 35102 ft 475 kts 135°
2026-04-25 18:40 41.86905 11.00995 35104 ft 475 kts 135°
2026-04-25 18:41 41.82236 11.07262 35102 ft 475 kts 134°
2026-04-25 18:41 41.77562 11.13522 35110 ft 475 kts 135°
2026-04-25 18:42 41.73676 11.18719 35104 ft 475 kts 135°
2026-04-25 18:42 41.68216 11.26008 35108 ft 474 kts 135°
2026-04-25 18:43 41.63539 11.32235 35110 ft 474 kts 135°
2026-04-25 18:43 41.58865 11.38443 35113 ft 473 kts 135°
2026-04-25 18:44 41.54195 11.44634 35109 ft 473 kts 135°
2026-04-25 18:44 41.49529 11.50804 35109 ft 472 kts 135°
2026-04-25 18:45 41.44859 11.56968 35102 ft 472 kts 135°
2026-04-25 18:45 41.40222 11.63075 35102 ft 472 kts 135°
2026-04-25 18:46 41.35552 11.69212 35111 ft 471 kts 135°
2026-04-25 18:46 41.30890 11.75327 35112 ft 471 kts 135°
2026-04-25 18:47 41.26226 11.81431 35110 ft 470 kts 135°
2026-04-25 18:47 41.21563 11.87519 35110 ft 470 kts 135°
2026-04-25 18:48 41.16906 11.93588 35105 ft 470 kts 135°
2026-04-25 18:48 41.12234 11.99663 35109 ft 470 kts 135°
2026-04-25 18:49 41.07561 12.05727 35111 ft 470 kts 135°
2026-04-25 18:49 41.02895 12.11770 35111 ft 469 kts 136°
2026-04-25 18:50 40.98227 12.17801 35115 ft 469 kts 136°
2026-04-25 18:50 40.93560 12.23820 35104 ft 469 kts 136°
2026-04-25 18:51 40.89678 12.28816 35105 ft 469 kts 136°
2026-04-25 18:51 40.84207 12.35839 35108 ft 469 kts 136°
2026-04-25 18:52 40.79522 12.41840 35108 ft 469 kts 136°
2026-04-25 18:52 40.74859 12.47806 35112 ft 466 kts 136°
2026-04-25 18:53 40.70184 12.53775 35112 ft 467 kts 136°
2026-04-25 18:53 40.65507 12.59730 35110 ft 469 kts 136°
2026-04-25 18:54 40.58456 12.68685 35114 ft 469 kts 136°
2026-04-25 18:55 40.53751 12.74646 35116 ft 470 kts 136°
2026-04-25 18:55 40.49057 12.80581 35117 ft 466 kts 136°
2026-04-25 18:56 40.44374 12.86490 35119 ft 468 kts 136°
2026-04-25 18:56 40.39682 12.92397 35117 ft 466 kts 136°
2026-04-25 18:57 40.35013 12.98264 35117 ft 468 kts 136°
2026-04-25 18:57 40.30311 13.04160 35119 ft 469 kts 136°
2026-04-25 18:58 40.25601 13.10055 35114 ft 468 kts 136°
2026-04-25 18:58 40.18536 13.18874 35118 ft 465 kts 137°
2026-04-25 18:59 40.09132 13.30571 35120 ft 467 kts 136°
2026-04-25 19:00 40.02056 13.39342 35124 ft 468 kts 136°
2026-04-25 19:01 39.94976 13.48092 35123 ft 467 kts 137°
2026-04-25 19:01 39.90260 13.53906 35120 ft 464 kts 137°
2026-04-25 19:02 39.83221 13.62561 35120 ft 466 kts 137°
2026-04-25 19:03 39.77699 13.69333 35123 ft 468 kts 137°
2026-04-25 19:03 39.71409 13.77029 35125 ft 467 kts 137°
2026-04-25 19:04 39.64327 13.85668 35123 ft 467 kts 137°
2026-04-25 19:05 39.54852 13.97188 35122 ft 467 kts 137°
2026-04-25 19:06 39.50120 14.02924 35127 ft 467 kts 137°
2026-04-25 19:06 39.43016 14.11515 35126 ft 465 kts 137°
2026-04-25 19:07 39.35896 14.20099 35127 ft 468 kts 137°
2026-04-25 19:08 39.28953 14.28864 35126 ft 466 kts 129°
2026-04-25 19:09 39.22029 14.39606 35128 ft 467 kts 129°
2026-04-25 19:10 39.14367 14.51404 35129 ft 466 kts 129°
2026-04-25 19:10 39.10228 14.57753 35127 ft 466 kts 130°
2026-04-25 19:11 39.06032 14.64171 35124 ft 470 kts 130°
2026-04-25 19:11 39.01827 14.70590 35131 ft 469 kts 129°
2026-04-25 19:12 38.97625 14.76991 35126 ft 468 kts 130°
2026-04-25 19:12 38.93418 14.83389 35127 ft 469 kts 130°
2026-04-25 19:13 38.89201 14.89787 35137 ft 470 kts 130°
2026-04-25 19:13 38.84970 14.96190 35130 ft 468 kts 129°
2026-04-25 19:14 38.81481 15.01466 35128 ft 470 kts 130°
2026-04-25 19:14 38.77204 15.07919 35127 ft 470 kts 129°
2026-04-25 19:15 38.72970 15.14293 35123 ft 469 kts 130°
2026-04-25 19:15 38.68763 15.20616 35127 ft 470 kts 130°
2026-04-25 19:16 38.64526 15.26971 35129 ft 470 kts 130°
2026-04-25 19:16 38.60281 15.33321 35129 ft 470 kts 130°
2026-04-25 19:17 38.56034 15.39667 35132 ft 470 kts 130°
2026-04-25 19:17 38.51778 15.46011 35123 ft 470 kts 130°
2026-04-25 19:18 38.47522 15.52342 35132 ft 471 kts 130°
2026-04-25 19:18 38.43250 15.58686 35132 ft 471 kts 130°
2026-04-25 19:19 38.38975 15.65021 35131 ft 471 kts 130°
2026-04-25 19:19 38.34698 15.71346 35123 ft 471 kts 130°
2026-04-25 19:20 38.30416 15.77667 35123 ft 471 kts 130°
2026-04-25 19:20 38.26131 15.83979 35110 ft 471 kts 130°
2026-04-25 19:21 38.21842 15.90285 35116 ft 472 kts 130°
2026-04-25 19:21 38.15390 15.99749 35121 ft 472 kts 130°
2026-04-25 19:22 38.11083 16.06048 35124 ft 472 kts 130°
2026-04-25 19:23 38.04613 16.15490 35103 ft 472 kts 130°
2026-04-25 19:23 37.98139 16.24912 35090 ft 472 kts 130°
2026-04-25 19:24 37.93818 16.31184 35088 ft 473 kts 130°
2026-04-25 19:25 37.85187 16.43675 35087 ft 473 kts 129°
2026-04-25 19:25 37.80840 16.49949 35088 ft 473 kts 129°
2026-04-25 19:26 37.76494 16.56209 35091 ft 474 kts 130°
2026-04-25 19:26 37.72148 16.62456 35094 ft 474 kts 130°
2026-04-25 19:27 37.68531 16.67648 35088 ft 474 kts 130°
2026-04-25 19:27 37.63429 16.74953 35093 ft 474 kts 129°
2026-04-25 19:28 37.59067 16.81188 35091 ft 474 kts 129°
2026-04-25 19:28 37.54693 16.87428 35092 ft 474 kts 129°
2026-04-25 19:29 37.50317 16.93658 35094 ft 475 kts 130°
2026-04-25 19:29 37.45938 16.99881 35095 ft 475 kts 130°
2026-04-25 19:30 37.41559 17.06091 35105 ft 475 kts 129°
2026-04-25 19:30 37.37171 17.12303 35090 ft 475 kts 129°
2026-04-25 19:31 37.32773 17.18519 35094 ft 476 kts 129°
2026-04-25 19:31 37.28370 17.24729 35093 ft 476 kts 129°
2026-04-25 19:32 37.23996 17.30885 35094 ft 476 kts 130°
2026-04-25 19:32 37.20298 17.36081 35095 ft 476 kts 130°
2026-04-25 19:33 37.15168 17.43274 35098 ft 476 kts 129°
2026-04-25 19:33 37.10747 17.49463 35095 ft 476 kts 129°
2026-04-25 19:34 37.06327 17.55638 35100 ft 476 kts 129°
2026-04-25 19:34 37.01900 17.61810 35098 ft 476 kts 129°
2026-04-25 19:35 36.97473 17.67971 35090 ft 476 kts 129°
2026-04-25 19:35 36.93044 17.74124 35086 ft 476 kts 130°
2026-04-25 19:36 36.88610 17.80271 35096 ft 476 kts 129°
2026-04-25 19:36 36.84172 17.86413 35094 ft 476 kts 129°
2026-04-25 19:37 36.79731 17.92548 35083 ft 477 kts 129°
2026-04-25 19:37 36.75276 17.98689 35085 ft 477 kts 129°
2026-04-25 19:38 36.70816 18.04828 35088 ft 478 kts 129°
2026-04-25 19:38 36.66351 18.10960 35090 ft 478 kts 129°
2026-04-25 19:39 36.61877 18.17094 35088 ft 478 kts 130°
2026-04-25 19:39 36.57401 18.23224 35089 ft 478 kts 130°
2026-04-25 19:40 36.52924 18.29347 35092 ft 478 kts 130°
2026-04-25 19:40 36.49028 18.35983 35075 ft 475 kts 116°
2026-04-25 19:41 36.46218 18.43383 35098 ft 474 kts 112°
2026-04-25 19:41 36.44382 18.48304 35087 ft 474 kts 112°
2026-04-25 19:42 36.40654 18.58246 35086 ft 475 kts 112°
2026-04-25 19:42 36.37861 18.65668 35086 ft 475 kts 112°
2026-04-25 19:43 36.35058 18.73093 35085 ft 475 kts 112°
2026-04-25 19:43 36.32252 18.80504 35086 ft 475 kts 112°
2026-04-25 19:44 36.29441 18.87914 35081 ft 475 kts 112°
2026-04-25 19:44 36.26627 18.95312 35096 ft 474 kts 112°
2026-04-25 19:45 36.23828 19.02654 35092 ft 474 kts 112°
2026-04-25 19:45 36.21008 19.10035 35078 ft 474 kts 112°
2026-04-25 19:46 36.18182 19.17411 35083 ft 474 kts 112°
2026-04-25 19:46 36.15354 19.24779 35079 ft 474 kts 112°
2026-04-25 19:47 36.12526 19.32132 35074 ft 473 kts 112°
2026-04-25 19:47 36.09687 19.39493 35057 ft 475 kts 112°
2026-04-25 19:48 36.06837 19.46868 35088 ft 476 kts 112°
2026-04-25 19:48 36.03975 19.54255 35061 ft 477 kts 112°
2026-04-25 19:49 36.02055 19.59200 35062 ft 477 kts 112°
2026-04-25 19:49 35.98226 19.69043 35064 ft 478 kts 112°
2026-04-25 19:50 35.93898 19.80130 35086 ft 478 kts 112°
2026-04-25 19:51 35.91006 19.87522 35071 ft 478 kts 113°
2026-04-25 19:51 35.88110 19.94907 35070 ft 478 kts 113°
2026-04-25 19:52 35.85207 20.02288 35071 ft 478 kts 113°
2026-04-25 19:52 35.82302 20.09658 35063 ft 478 kts 113°
2026-04-25 19:53 35.79395 20.17025 35064 ft 478 kts 114°
2026-04-25 19:53 35.76479 20.24391 35075 ft 478 kts 114°
2026-04-25 19:54 35.73557 20.31751 35078 ft 478 kts 114°
2026-04-25 19:54 35.70650 20.39060 35055 ft 479 kts 114°
2026-04-25 19:55 35.67717 20.46420 35043 ft 480 kts 114°
2026-04-25 19:55 35.64766 20.53806 35051 ft 481 kts 115°
2026-04-25 19:56 35.61808 20.61194 35056 ft 482 kts 115°
2026-04-25 19:56 35.58843 20.68581 35061 ft 482 kts 115°
2026-04-25 19:57 35.55866 20.75981 35057 ft 483 kts 115°
2026-04-25 19:57 35.52884 20.83377 35059 ft 484 kts 115°
2026-04-25 19:58 35.49896 20.90772 35058 ft 484 kts 115°
2026-04-25 19:58 35.46901 20.98165 35056 ft 484 kts 115°
2026-04-25 19:59 35.43901 21.05556 35052 ft 484 kts 115°
2026-04-25 19:59 35.40897 21.12941 35051 ft 484 kts 115°
2026-04-25 20:00 35.37887 21.20323 35058 ft 484 kts 115°
2026-04-25 20:00 35.34877 21.27696 35048 ft 484 kts 115°
2026-04-25 20:01 35.30371 21.38684 35044 ft 484 kts 115°
2026-04-25 20:01 35.27350 21.46035 35039 ft 483 kts 115°
2026-04-25 20:02 35.24316 21.53402 35044 ft 487 kts 115°
2026-04-25 20:02 35.21759 21.59597 35037 ft 486 kts 116°
2026-04-25 20:03 35.18716 21.66955 35038 ft 486 kts 116°
2026-04-25 20:03 35.15684 21.74271 35037 ft 485 kts 116°
2026-04-25 20:04 35.12629 21.81625 35033 ft 486 kts 115°
2026-04-25 20:04 35.09572 21.88964 35033 ft 485 kts 115°
2026-04-25 20:05 35.06514 21.96294 35031 ft 485 kts 115°
2026-04-25 20:05 35.03449 22.03625 35033 ft 485 kts 115°
2026-04-25 20:06 35.00375 22.10962 35029 ft 485 kts 115°
2026-04-25 20:06 34.97299 22.18276 35039 ft 485 kts 115°
2026-04-25 20:07 34.94227 22.25577 35030 ft 484 kts 115°
2026-04-25 20:07 34.91152 22.32868 35022 ft 483 kts 115°
2026-04-25 20:08 34.88075 22.40148 35017 ft 483 kts 115°
2026-04-25 20:08 34.84993 22.47423 35006 ft 484 kts 115°
2026-04-25 20:09 34.81901 22.54706 35014 ft 486 kts 115°
2026-04-25 20:09 34.78782 22.62038 35003 ft 489 kts 115°
2026-04-25 20:10 34.75651 22.69381 35003 ft 487 kts 115°
2026-04-25 20:10 34.72524 22.76699 34997 ft 489 kts 115°
2026-04-25 20:11 34.69380 22.84054 34995 ft 491 kts 115°
2026-04-25 20:11 34.66217 22.91429 34989 ft 495 kts 115°
2026-04-25 20:12 34.63044 22.98815 34978 ft 491 kts 115°
2026-04-25 20:12 34.60419 23.04941 35069 ft 494 kts 114°
2026-04-25 20:13 34.58322 23.09905 35250 ft 493 kts 115°
2026-04-25 20:13 34.56761 23.13605 35393 ft 494 kts 115°
2026-04-25 20:13 34.53592 23.21078 35483 ft 499 kts 115°
2026-04-25 20:14 34.52027 23.24765 35627 ft 497 kts 116°
2026-04-25 20:14 34.50426 23.28533 35820 ft 497 kts 116°
2026-04-25 20:14 34.47240 23.36010 35988 ft 500 kts 116°
2026-04-25 20:15 34.45646 23.39744 36177 ft 497 kts 116°
2026-04-25 20:15 34.44077 23.43412 36367 ft 497 kts 116°
2026-04-25 20:15 34.40886 23.50874 36541 ft 499 kts 116°
2026-04-25 20:16 34.39291 23.54600 36746 ft 498 kts 116°
2026-04-25 20:16 34.37694 23.58328 36747 ft 501 kts 117°
2026-04-25 20:16 34.34463 23.65843 36896 ft 503 kts 117°
2026-04-25 20:17 34.31225 23.73358 36956 ft 505 kts 117°
2026-04-25 20:17 34.27996 23.80837 36936 ft 498 kts 118°
2026-04-25 20:18 34.24773 23.88285 36927 ft 502 kts 118°
2026-04-25 20:18 34.21540 23.95738 36929 ft 499 kts 118°
2026-04-25 20:19 34.18305 24.03181 36925 ft 501 kts 118°
2026-04-25 20:19 34.15066 24.10622 36926 ft 501 kts 118°
2026-04-25 20:20 34.11806 24.18091 36919 ft 502 kts 118°
2026-04-25 20:20 34.08554 24.25525 36920 ft 501 kts 118°
2026-04-25 20:21 34.05288 24.32975 36913 ft 502 kts 118°
2026-04-25 20:21 34.02013 24.40394 36907 ft 501 kts 121°
2026-04-25 20:22 33.98686 24.46070 36910 ft 498 kts 133°
2026-04-25 20:22 33.92818 24.52746 36895 ft 498 kts 141°
2026-04-25 20:23 33.87634 24.58300 36898 ft 499 kts 141°
2026-04-25 20:23 33.82464 24.63858 36890 ft 498 kts 141°
2026-04-25 20:24 33.77294 24.69402 36877 ft 498 kts 141°
2026-04-25 20:24 33.72157 24.74898 36886 ft 498 kts 141°
2026-04-25 20:25 33.66950 24.80459 36889 ft 497 kts 141°
2026-04-25 20:25 33.61810 24.85942 36911 ft 498 kts 141°
2026-04-25 20:26 33.56599 24.91487 36901 ft 502 kts 141°
2026-04-25 20:26 33.51392 24.97019 36901 ft 502 kts 142°
2026-04-25 20:27 33.46153 25.02579 36894 ft 502 kts 142°
2026-04-25 20:27 33.40909 25.08133 36902 ft 503 kts 142°
2026-04-25 20:28 33.35632 25.13712 36897 ft 503 kts 142°
2026-04-25 20:28 33.30423 25.19209 36898 ft 502 kts 142°
2026-04-25 20:29 33.25146 25.24771 36903 ft 502 kts 142°
2026-04-25 20:29 33.19938 25.30249 36906 ft 502 kts 142°
2026-04-25 20:30 33.14695 25.35758 36911 ft 501 kts 143°
2026-04-25 20:30 33.09465 25.41242 36912 ft 500 kts 143°
2026-04-25 20:31 33.04235 25.46715 36909 ft 500 kts 143°
2026-04-25 20:31 32.99024 25.52164 36899 ft 500 kts 143°
2026-04-25 20:32 32.93779 25.57635 36905 ft 500 kts 143°
2026-04-25 20:32 32.88547 25.63084 36914 ft 500 kts 143°
2026-04-25 20:33 32.83304 25.68537 36909 ft 501 kts 144°
2026-04-25 20:33 32.78945 25.73063 36912 ft 501 kts 144°
2026-04-25 20:34 32.72797 25.79436 36920 ft 502 kts 144°
2026-04-25 20:34 32.67542 25.84877 36915 ft 502 kts 144°
2026-04-25 20:35 32.62266 25.90328 36927 ft 502 kts 144°
2026-04-25 20:35 32.56991 25.95768 36919 ft 502 kts 144°
2026-04-25 20:36 32.51717 26.01199 36929 ft 503 kts 144°
2026-04-25 20:36 32.46434 26.06631 36939 ft 503 kts 144°
2026-04-25 20:37 32.41147 26.12059 36939 ft 503 kts 145°
2026-04-25 20:37 32.35966 26.17369 36935 ft 505 kts 145°
2026-04-25 20:38 32.30604 26.22855 36942 ft 506 kts 145°
2026-04-25 20:38 32.25281 26.28296 36946 ft 505 kts 145°
2026-04-25 20:39 32.19962 26.33721 36953 ft 506 kts 145°
2026-04-25 20:39 32.16434 26.37314 36954 ft 505 kts 145°
2026-04-25 20:40 32.09345 26.44523 36955 ft 505 kts 145°
2026-04-25 20:40 32.04018 26.49931 36929 ft 506 kts 146°
2026-04-25 20:41 31.98682 26.55338 36955 ft 506 kts 146°
2026-04-25 20:41 31.93346 26.60739 36959 ft 506 kts 146°
2026-04-25 20:42 31.88004 26.66135 36962 ft 506 kts 146°
2026-04-25 20:42 31.82659 26.71526 36963 ft 506 kts 146°
2026-04-25 20:43 31.77310 26.76913 36970 ft 506 kts 146°
2026-04-25 20:43 31.71961 26.82293 36955 ft 507 kts 146°
2026-04-25 20:44 31.66594 26.87680 36950 ft 507 kts 146°
2026-04-25 20:44 31.61227 26.93059 36976 ft 508 kts 146°
2026-04-25 20:45 31.55853 26.98436 36973 ft 508 kts 146°
2026-04-25 20:45 31.50469 27.03816 36978 ft 508 kts 146°
2026-04-25 20:46 31.45115 27.09157 36992 ft 509 kts 146°
2026-04-25 20:46 31.39729 27.14523 36956 ft 509 kts 147°
2026-04-25 20:47 31.34332 27.19904 36990 ft 511 kts 146°
2026-04-25 20:47 31.29592 27.26246 36991 ft 527 kts 129°
2026-04-25 20:48 31.25518 27.33374 36992 ft 527 kts 130°
2026-04-25 20:48 31.21409 27.40485 36992 ft 528 kts 130°
2026-04-25 20:49 31.17961 27.46423 36991 ft 528 kts 130°
2026-04-25 20:49 31.13168 27.54660 36988 ft 528 kts 130°
2026-04-25 20:50 31.09694 27.60523 36987 ft 528 kts 131°
2026-04-25 20:50 31.05485 27.67548 36944 ft 528 kts 131°
2026-04-25 20:51 31.01275 27.74583 36968 ft 530 kts 131°
2026-04-25 20:51 30.97051 27.81635 36980 ft 531 kts 131°
2026-04-25 20:52 30.93507 27.87543 36983 ft 532 kts 131°
2026-04-25 20:52 30.88577 27.95750 36994 ft 532 kts 131°
2026-04-25 20:53 30.84330 28.02805 36994 ft 532 kts 132°
2026-04-25 20:53 30.80077 28.09860 36989 ft 532 kts 132°
2026-04-25 20:54 30.75819 28.16906 36990 ft 533 kts 132°
2026-04-25 20:54 30.71555 28.23952 37002 ft 533 kts 132°
2026-04-25 20:55 30.67291 28.30986 36991 ft 533 kts 132°
2026-04-25 20:55 30.63010 28.38037 36948 ft 533 kts 133°
2026-04-25 20:56 30.58732 28.45066 36969 ft 534 kts 133°
2026-04-25 20:56 30.54467 28.52062 36974 ft 535 kts 133°
2026-04-25 20:57 30.50164 28.59108 36968 ft 536 kts 133°
2026-04-25 20:57 30.45822 28.66207 36966 ft 536 kts 133°
2026-04-25 20:58 30.41534 28.73206 36981 ft 536 kts 133°
2026-04-25 20:58 30.37179 28.80300 36970 ft 537 kts 133°
2026-04-25 20:59 30.32877 28.87296 36973 ft 537 kts 133°
2026-04-25 20:59 30.28541 28.94336 36964 ft 537 kts 133°
2026-04-25 21:00 30.24907 29.00226 36960 ft 537 kts 133°
2026-04-25 21:01 30.17693 29.11900 36936 ft 537 kts 134°
2026-04-25 21:01 30.13352 29.18933 36938 ft 538 kts 133°
2026-04-25 21:02 30.09037 29.26008 36937 ft 540 kts 133°
2026-04-25 21:02 30.04753 29.33141 36944 ft 540 kts 133°
2026-04-25 21:03 30.00465 29.40246 36940 ft 540 kts 133°
2026-04-25 21:03 29.96162 29.47348 36940 ft 540 kts 133°
2026-04-25 21:04 29.91890 29.54384 36917 ft 540 kts 133°
2026-04-25 21:04 29.87585 29.61464 36936 ft 539 kts 133°
2026-04-25 21:05 29.83277 29.68534 36937 ft 539 kts 133°
2026-04-25 21:05 29.78971 29.75589 36931 ft 539 kts 133°
2026-04-25 21:06 29.74649 29.82659 36931 ft 539 kts 133°
2026-04-25 21:06 29.70330 29.89712 36925 ft 539 kts 134°
2026-04-25 21:07 29.66007 29.96758 36922 ft 539 kts 134°
2026-04-25 21:07 29.61676 30.03806 36930 ft 540 kts 134°
2026-04-25 21:08 29.57344 30.10843 36915 ft 540 kts 134°
2026-04-25 21:08 29.53005 30.17881 36911 ft 539 kts 134°
2026-04-25 21:09 29.46494 30.28416 36909 ft 540 kts 134°
2026-04-25 21:09 29.42147 30.35436 36905 ft 540 kts 134°
2026-04-25 21:10 29.37525 30.42010 36879 ft 525 kts 144°
2026-04-25 21:10 29.32437 30.48031 36886 ft 527 kts 144°
2026-04-25 21:11 29.27358 30.54087 36888 ft 528 kts 143°
2026-04-25 21:11 29.22264 30.60155 36894 ft 528 kts 143°
2026-04-25 21:12 29.17165 30.66218 36894 ft 529 kts 144°
2026-04-25 21:12 29.12919 30.71259 36897 ft 529 kts 144°
2026-04-25 21:13 29.06947 30.78338 36900 ft 529 kts 144°
2026-04-25 21:13 29.01837 30.84388 36880 ft 529 kts 144°
2026-04-25 21:14 28.96721 30.90433 36889 ft 529 kts 144°
2026-04-25 21:14 28.91603 30.96471 36859 ft 530 kts 144°
2026-04-25 21:15 28.86476 31.02511 36898 ft 529 kts 144°
2026-04-25 21:15 28.81349 31.08540 36912 ft 530 kts 144°
2026-04-25 21:16 28.76213 31.14572 36914 ft 530 kts 144°
2026-04-25 21:16 28.71081 31.20592 36923 ft 530 kts 144°
2026-04-25 21:17 28.66028 31.26731 36899 ft 533 kts 142°
2026-04-25 21:17 28.61095 31.33038 36910 ft 534 kts 142°
2026-04-25 21:18 28.56128 31.39329 36916 ft 534 kts 142°
2026-04-25 21:18 28.51140 31.45598 36928 ft 535 kts 142°
2026-04-25 21:19 28.46146 31.51860 36930 ft 535 kts 142°
2026-04-25 21:19 28.41179 31.58079 36928 ft 535 kts 142°
2026-04-25 21:20 28.36983 31.63324 36942 ft 535 kts 142°
2026-04-25 21:20 28.31160 31.70595 36903 ft 535 kts 143°
2026-04-25 21:21 28.26149 31.76842 36940 ft 535 kts 143°
2026-04-25 21:21 28.21134 31.83083 36948 ft 536 kts 143°
2026-04-25 21:22 28.16107 31.89328 36963 ft 537 kts 143°
2026-04-25 21:22 28.11075 31.95571 36968 ft 537 kts 143°
2026-04-25 21:23 28.06031 32.01821 36979 ft 537 kts 143°
2026-04-25 21:23 28.01546 32.08756 36969 ft 559 kts 127°
2026-04-25 21:24 27.97859 32.16518 36970 ft 561 kts 127°
2026-04-25 21:24 27.94136 32.24272 36977 ft 561 kts 127°
2026-04-25 21:25 27.90398 32.32013 36936 ft 561 kts 127°
2026-04-25 21:25 27.86655 32.39753 36946 ft 562 kts 127°
2026-04-25 21:26 27.82900 32.47498 36955 ft 563 kts 127°
2026-04-25 21:26 27.79160 32.55199 36971 ft 563 kts 127°
2026-04-25 21:27 27.75387 32.62956 36938 ft 563 kts 127°
2026-04-25 21:27 27.71615 32.70696 36968 ft 563 kts 127°
2026-04-25 21:28 27.67833 32.78441 36969 ft 563 kts 127°
2026-04-25 21:28 27.64045 32.86186 36960 ft 564 kts 127°
2026-04-25 21:29 27.60267 32.93897 36952 ft 560 kts 127°
2026-04-25 21:29 27.56501 33.01570 36948 ft 560 kts 127°
2026-04-25 21:30 27.52720 33.09256 36944 ft 560 kts 128°
2026-04-25 21:30 27.49580 33.15631 36945 ft 560 kts 128°
2026-04-25 21:31 27.45161 33.24586 36927 ft 559 kts 128°
2026-04-25 21:31 27.41374 33.32244 36925 ft 559 kts 128°
2026-04-25 21:32 27.37588 33.39889 36936 ft 560 kts 128°
2026-04-25 21:32 27.33788 33.47540 36913 ft 559 kts 128°
2026-04-25 21:33 27.30048 33.55057 36906 ft 560 kts 128°
2026-04-25 21:33 27.26467 33.62243 36911 ft 560 kts 128°
2026-04-25 21:34 27.22653 33.69884 36904 ft 560 kts 128°
2026-04-25 21:34 27.18839 33.77511 36917 ft 560 kts 128°
2026-04-25 21:35 27.15637 33.85596 36911 ft 571 kts 118°
2026-04-25 21:35 27.12718 33.93878 36912 ft 571 kts 119°
2026-04-25 21:36 27.09776 34.02148 36908 ft 570 kts 119°
2026-04-25 21:36 27.06827 34.10408 36899 ft 570 kts 119°
2026-04-25 21:37 27.04854 34.15926 36893 ft 570 kts 119°
2026-04-25 21:37 27.00920 34.26908 36891 ft 570 kts 119°
2026-04-25 21:38 26.98461 34.33752 36893 ft 570 kts 119°
2026-04-25 21:38 26.95497 34.41985 36893 ft 570 kts 119°
2026-04-25 21:39 26.92529 34.50215 36894 ft 569 kts 119°
2026-04-25 21:39 26.89559 34.58431 36897 ft 569 kts 119°
2026-04-25 21:40 26.86586 34.66637 36896 ft 569 kts 120°
2026-04-25 21:40 26.83608 34.74840 36880 ft 568 kts 120°
2026-04-25 21:41 26.80628 34.83031 36900 ft 567 kts 120°
2026-04-25 21:41 26.77648 34.91205 36899 ft 567 kts 120°
2026-04-25 21:42 26.74664 34.99377 36880 ft 567 kts 120°
2026-04-25 21:42 26.71681 35.07533 36894 ft 567 kts 120°
2026-04-25 21:43 26.68693 35.15687 36889 ft 567 kts 120°
2026-04-25 21:43 26.65722 35.23774 36890 ft 566 kts 120°
2026-04-25 21:44 26.62724 35.31917 36902 ft 566 kts 120°
2026-04-25 21:45 26.58222 35.44119 36899 ft 566 kts 120°
2026-04-25 21:45 26.55202 35.52238 36887 ft 566 kts 120°
2026-04-25 21:46 26.52109 35.60315 36892 ft 565 kts 121°
2026-04-25 21:46 26.49013 35.68384 36897 ft 566 kts 121°
2026-04-25 21:47 26.45917 35.76460 36873 ft 566 kts 120°
2026-04-25 21:47 26.42823 35.84523 36877 ft 565 kts 120°
2026-04-25 21:48 26.39721 35.92591 36878 ft 566 kts 120°
2026-04-25 21:48 26.36615 36.00651 36894 ft 566 kts 120°
2026-04-25 21:49 26.33501 36.08719 36888 ft 566 kts 120°
2026-04-25 21:49 26.30380 36.16786 36881 ft 567 kts 120°
2026-04-25 21:50 26.27257 36.24842 36884 ft 567 kts 120°
2026-04-25 21:50 26.24127 36.32899 36891 ft 567 kts 120°
2026-04-25 21:51 26.20992 36.40957 36880 ft 567 kts 120°
2026-04-25 21:51 26.17822 36.48994 36872 ft 564 kts 124°
2026-04-25 21:52 26.14097 36.56589 36866 ft 560 kts 127°
2026-04-25 21:52 26.10352 36.64191 36885 ft 560 kts 127°
2026-04-25 21:53 26.06606 36.71788 36899 ft 560 kts 127°
2026-04-25 21:53 26.02860 36.79370 36892 ft 560 kts 127°
2026-04-25 21:54 25.99238 36.86684 36893 ft 560 kts 127°
2026-04-25 21:54 25.95478 36.94267 36894 ft 560 kts 127°
2026-04-25 21:55 25.91718 37.01838 36895 ft 560 kts 127°
2026-04-25 21:55 25.87954 37.09403 36895 ft 560 kts 127°
2026-04-25 21:56 25.84184 37.16965 36899 ft 560 kts 127°
2026-04-25 21:56 25.80414 37.24517 36897 ft 559 kts 127°
2026-04-25 21:57 25.76673 37.32026 36904 ft 559 kts 127°
2026-04-25 21:57 25.72919 37.39574 36899 ft 558 kts 126°
2026-04-25 21:58 25.69178 37.47081 36926 ft 555 kts 126°
2026-04-25 21:58 25.65426 37.54587 36934 ft 557 kts 126°
2026-04-25 21:59 25.61672 37.62087 36931 ft 556 kts 126°
2026-04-25 21:59 25.57921 37.69570 36932 ft 556 kts 126°
2026-04-25 22:00 25.52294 37.80771 36929 ft 555 kts 126°
2026-04-25 22:00 25.48531 37.88248 36931 ft 555 kts 126°
2026-04-25 22:01 25.44774 37.95698 36915 ft 555 kts 126°
2026-04-25 22:01 25.41649 38.01887 36921 ft 554 kts 126°
2026-04-25 22:02 25.37262 38.10563 36916 ft 553 kts 126°
2026-04-25 22:02 25.33500 38.17990 36926 ft 553 kts 126°
2026-04-25 22:03 25.29764 38.25348 36935 ft 552 kts 126°
2026-04-25 22:03 25.26003 38.32748 36933 ft 552 kts 126°
2026-04-25 22:04 25.22243 38.40139 36924 ft 552 kts 126°
2026-04-25 22:04 25.18481 38.47517 36937 ft 551 kts 126°
2026-04-25 22:05 25.14713 38.54893 36940 ft 551 kts 126°
2026-04-25 22:05 25.10953 38.62230 36929 ft 552 kts 126°
2026-04-25 22:06 25.07179 38.69582 36949 ft 550 kts 126°
2026-04-25 22:06 25.03407 38.76921 36958 ft 550 kts 126°
2026-04-25 22:07 25.00276 38.83004 36951 ft 548 kts 126°
2026-04-25 22:07 24.95873 38.91552 36959 ft 547 kts 126°
2026-04-25 22:08 24.92108 38.98838 36964 ft 547 kts 126°
2026-04-25 22:08 24.88358 39.06072 36962 ft 547 kts 126°
2026-04-25 22:09 24.84585 39.13344 36955 ft 547 kts 126°
2026-04-25 22:09 24.80818 39.20597 36970 ft 546 kts 126°
2026-04-25 22:10 24.77047 39.27848 36970 ft 546 kts 126°
2026-04-25 22:10 24.73272 39.35099 36974 ft 546 kts 126°
2026-04-25 22:11 24.69498 39.42334 36983 ft 544 kts 126°
2026-04-25 22:11 24.65737 39.49538 36975 ft 543 kts 126°
2026-04-25 22:12 24.61978 39.56721 36973 ft 542 kts 126°
2026-04-25 22:12 24.58858 39.62679 36989 ft 542 kts 126°
2026-04-25 22:13 24.55050 39.71486 36995 ft 555 kts 110°
2026-04-25 22:13 24.53822 39.79914 36990 ft 562 kts 97°
2026-04-25 22:14 24.53034 39.88443 36995 ft 561 kts 98°
2026-04-25 22:14 24.52213 39.96965 36995 ft 561 kts 98°
2026-04-25 22:15 24.51389 40.05434 36994 ft 561 kts 98°
2026-04-25 22:16 24.50138 40.18206 36998 ft 561 kts 98°
2026-04-25 22:16 24.49299 40.26723 36990 ft 561 kts 98°
2026-04-25 22:17 24.48456 40.35218 36997 ft 560 kts 98°
2026-04-25 22:17 24.47611 40.43703 37007 ft 559 kts 98°
2026-04-25 22:18 24.46760 40.52178 36994 ft 557 kts 98°
2026-04-25 22:18 24.45909 40.60617 37004 ft 556 kts 98°
2026-04-25 22:19 24.45052 40.69063 37186 ft 557 kts 98°
2026-04-25 22:19 24.44622 40.73280 37355 ft 556 kts 98°
2026-04-25 22:19 24.44191 40.77501 37464 ft 557 kts 98°
2026-04-25 22:19 24.43758 40.81717 37600 ft 556 kts 98°
2026-04-25 22:20 24.43325 40.85933 37750 ft 555 kts 98°
2026-04-25 22:20 24.42891 40.90139 37896 ft 555 kts 98°
2026-04-25 22:20 24.42456 40.94339 38105 ft 552 kts 97°
2026-04-25 22:20 24.42023 40.98515 38287 ft 551 kts 97°
2026-04-25 22:21 24.41590 41.02688 38418 ft 551 kts 97°
2026-04-25 22:21 24.41161 41.06801 38551 ft 550 kts 97°
2026-04-25 22:21 24.40726 41.10972 38683 ft 550 kts 97°
2026-04-25 22:22 24.39854 41.19298 38872 ft 550 kts 97°
2026-04-25 22:22 24.39416 41.23464 38980 ft 549 kts 97°
2026-04-25 22:22 24.38978 41.27623 39027 ft 549 kts 97°
2026-04-25 22:23 24.38099 41.35929 39043 ft 548 kts 97°
2026-04-25 22:23 24.37211 41.44271 39037 ft 551 kts 97°
2026-04-25 22:24 24.36320 41.52605 39043 ft 550 kts 97°
2026-04-25 22:24 24.35423 41.60937 39038 ft 550 kts 97°
2026-04-25 22:25 24.34524 41.69262 39037 ft 549 kts 97°
2026-04-25 22:25 24.33621 41.77574 39034 ft 549 kts 98°
2026-04-25 22:26 24.32244 41.85788 39035 ft 547 kts 108°
2026-04-25 22:26 24.30104 41.93793 39029 ft 547 kts 109°
2026-04-25 22:27 24.27995 42.01808 39038 ft 547 kts 108°
2026-04-25 22:27 24.26242 42.08468 39041 ft 547 kts 108°
2026-04-25 22:28 24.23785 42.17768 39039 ft 547 kts 108°
2026-04-25 22:28 24.21664 42.25772 39042 ft 547 kts 108°
2026-04-25 22:29 24.19539 42.33773 39047 ft 547 kts 108°
2026-04-25 22:29 24.17755 42.40477 39045 ft 547 kts 108°
2026-04-25 22:30 24.14558 42.52458 39047 ft 547 kts 108°
2026-04-25 22:30 24.12782 42.59095 39069 ft 546 kts 108°
2026-04-25 22:31 24.10294 42.68371 39059 ft 546 kts 108°
2026-04-25 22:31 24.08153 42.76337 39067 ft 546 kts 108°
2026-04-25 22:32 24.06009 42.84296 39075 ft 545 kts 108°
2026-04-25 22:32 24.03859 42.92258 39073 ft 545 kts 108°
2026-04-25 22:33 24.01708 43.00202 39065 ft 545 kts 108°
2026-04-25 22:33 23.99549 43.08154 39051 ft 545 kts 108°
2026-04-25 22:34 23.97389 43.16098 39054 ft 545 kts 108°
2026-04-25 22:34 23.95225 43.24038 39053 ft 545 kts 108°
2026-04-25 22:35 23.93061 43.31959 39069 ft 544 kts 108°
2026-04-25 22:35 23.90893 43.39879 39074 ft 544 kts 108°
2026-04-25 22:36 23.88721 43.47794 39071 ft 543 kts 108°
2026-04-25 22:36 23.86552 43.55682 39062 ft 542 kts 108°
2026-04-25 22:37 23.84380 43.63564 39044 ft 542 kts 108°
2026-04-25 22:37 23.82204 43.71443 39050 ft 541 kts 108°
2026-04-25 22:38 23.80030 43.79296 39035 ft 541 kts 108°
2026-04-25 22:38 23.77908 43.87206 39030 ft 542 kts 104°
2026-04-25 22:39 23.76900 43.95303 39022 ft 543 kts 94°
2026-04-25 22:39 23.76304 44.03524 39008 ft 543 kts 94°
2026-04-25 22:40 23.75687 44.11750 39004 ft 543 kts 94°
2026-04-25 22:40 23.75068 44.19975 39005 ft 545 kts 94°
2026-04-25 22:41 23.74444 44.28219 39009 ft 545 kts 94°
2026-04-25 22:41 23.73816 44.36464 39007 ft 545 kts 94°
2026-04-25 22:42 23.73185 44.44701 39008 ft 544 kts 94°
2026-04-25 22:42 23.72550 44.52929 39018 ft 544 kts 94°
2026-04-25 22:43 23.71911 44.61144 39012 ft 543 kts 94°
2026-04-25 22:43 23.71268 44.69356 39000 ft 542 kts 94°
2026-04-25 22:44 23.70623 44.77548 38995 ft 542 kts 94°
2026-04-25 22:44 23.69973 44.85735 38997 ft 541 kts 94°
2026-04-25 22:45 23.69319 44.93919 38995 ft 541 kts 95°
2026-04-25 22:45 23.68660 45.02106 38982 ft 542 kts 95°
2026-04-25 22:46 23.67996 45.10290 39000 ft 541 kts 94°
2026-04-25 22:46 23.67330 45.18460 38990 ft 540 kts 94°
2026-04-25 22:47 23.66659 45.26623 38990 ft 540 kts 95°
2026-04-25 22:47 23.65984 45.34796 38983 ft 540 kts 95°
2026-04-25 22:48 23.65305 45.42955 38980 ft 541 kts 95°
2026-04-25 22:48 23.64626 45.51073 38983 ft 541 kts 95°
2026-04-25 22:49 23.63937 45.59237 38988 ft 540 kts 94°
2026-04-25 22:49 23.63246 45.67392 38986 ft 540 kts 95°
2026-04-25 22:50 23.62550 45.75538 38979 ft 540 kts 95°
2026-04-25 22:50 23.61850 45.83682 38983 ft 540 kts 95°
2026-04-25 22:51 23.61145 45.91835 38983 ft 540 kts 95°
2026-04-25 22:51 23.60437 45.99981 38981 ft 540 kts 95°
2026-04-25 22:52 23.59724 46.08120 38988 ft 540 kts 95°
2026-04-25 22:52 23.59127 46.14912 38997 ft 541 kts 95°
2026-04-25 22:53 23.58283 46.24441 39001 ft 541 kts 95°
2026-04-25 22:53 23.57556 46.32604 39006 ft 541 kts 95°
2026-04-25 22:54 23.56824 46.40771 39015 ft 542 kts 95°
2026-04-25 22:54 23.56088 46.48929 39026 ft 541 kts 95°
2026-04-25 22:55 23.55352 46.57049 39034 ft 542 kts 95°
2026-04-25 22:55 23.54607 46.65197 39021 ft 539 kts 95°
2026-04-25 22:56 23.53862 46.73333 39021 ft 540 kts 95°
2026-04-25 22:56 23.53110 46.81479 39010 ft 540 kts 95°
2026-04-25 22:57 23.52353 46.89621 39011 ft 540 kts 95°
2026-04-25 22:57 23.51593 46.97757 39018 ft 540 kts 95°
2026-04-25 22:58 23.50827 47.05917 38999 ft 542 kts 95°
2026-04-25 22:58 23.50056 47.14080 38974 ft 542 kts 95°
2026-04-25 22:59 23.49283 47.22213 38995 ft 540 kts 95°
2026-04-25 22:59 23.48506 47.30357 38990 ft 541 kts 95°
2026-04-25 23:00 23.47722 47.38510 38992 ft 541 kts 95°
2026-04-25 23:00 23.46935 47.46658 38985 ft 541 kts 95°
2026-04-25 23:01 23.46145 47.54807 38979 ft 541 kts 95°
2026-04-25 23:01 23.45350 47.62948 38969 ft 541 kts 95°
2026-04-25 23:02 23.44550 47.71092 38977 ft 540 kts 95°
2026-04-25 23:02 23.43754 47.79165 38972 ft 539 kts 95°
2026-04-25 23:03 23.42950 47.87280 38967 ft 539 kts 95°
2026-04-25 23:03 23.42142 47.95385 38955 ft 538 kts 95°
2026-04-25 23:04 23.41461 48.02176 38955 ft 538 kts 95°
2026-04-25 23:04 23.40512 48.11602 38938 ft 539 kts 95°
2026-04-25 23:05 23.39690 48.19717 38929 ft 539 kts 95°
2026-04-25 23:05 23.38863 48.27837 38943 ft 539 kts 95°
2026-04-25 23:06 23.38125 48.35935 38938 ft 537 kts 90°
2026-04-25 23:06 23.37823 48.44052 38937 ft 536 kts 90°
2026-04-25 23:07 23.37500 48.52165 38929 ft 537 kts 90°
2026-04-25 23:07 23.37169 48.60227 38927 ft 537 kts 90°
2026-04-25 23:08 23.36832 48.68346 38925 ft 537 kts 90°
2026-04-25 23:08 23.36492 48.76464 38924 ft 537 kts 90°
2026-04-25 23:09 23.36147 48.84587 38923 ft 537 kts 90°
2026-04-25 23:09 23.35797 48.92705 38929 ft 536 kts 90°
2026-04-25 23:10 23.35445 49.00809 38929 ft 536 kts 90°
2026-04-25 23:10 23.34878 49.08887 38923 ft 537 kts 97°
2026-04-25 23:11 23.33698 49.16904 38913 ft 536 kts 97°
2026-04-25 23:11 23.32548 49.24926 38913 ft 536 kts 97°
2026-04-25 23:12 23.31397 49.32944 38913 ft 537 kts 97°
2026-04-25 23:12 23.30236 49.40979 38910 ft 537 kts 97°
2026-04-25 23:13 23.29071 49.49003 38916 ft 536 kts 97°
2026-04-25 23:13 23.27903 49.57011 38911 ft 537 kts 97°
2026-04-25 23:14 23.26731 49.65028 38912 ft 537 kts 97°
2026-04-25 23:14 23.25554 49.73046 38913 ft 537 kts 97°
2026-04-25 23:15 23.24382 49.81000 38906 ft 537 kts 97°
2026-04-25 23:15 23.23197 49.89021 38908 ft 537 kts 97°
2026-04-25 23:16 23.22006 49.97044 38907 ft 537 kts 97°
2026-04-25 23:16 23.20814 50.05044 38908 ft 535 kts 97°
2026-04-25 23:17 23.19622 50.13022 38906 ft 535 kts 97°
2026-04-25 23:17 23.18426 50.20999 38908 ft 535 kts 97°
2026-04-25 23:18 23.17224 50.28983 38905 ft 535 kts 97°
2026-04-25 23:18 23.16214 50.35674 38906 ft 535 kts 97°
2026-04-25 23:19 23.15012 50.43603 38906 ft 536 kts 97°
2026-04-25 23:19 23.13791 50.51639 38899 ft 536 kts 97°
2026-04-25 23:20 23.12579 50.59574 38911 ft 535 kts 97°
2026-04-25 23:20 23.11358 50.67549 38906 ft 535 kts 97°
2026-04-25 23:21 23.10134 50.75521 38903 ft 535 kts 97°
2026-04-25 23:21 23.08906 50.83488 38903 ft 535 kts 97°
2026-04-25 23:22 23.07675 50.91450 38898 ft 535 kts 97°
2026-04-25 23:23 23.05818 51.03405 38899 ft 535 kts 97°
2026-04-25 23:23 23.04574 51.11374 38886 ft 535 kts 97°
2026-04-25 23:24 23.03330 51.19321 38900 ft 534 kts 97°
2026-04-25 23:24 23.02082 51.27272 38903 ft 534 kts 97°
2026-04-25 23:25 23.00839 51.35156 38891 ft 534 kts 97°
2026-04-25 23:25 22.99576 51.43149 38891 ft 534 kts 97°
2026-04-25 23:26 22.98316 51.51086 38891 ft 534 kts 97°
2026-04-25 23:26 22.97053 51.59025 38884 ft 533 kts 97°
2026-04-25 23:27 22.95794 51.66904 38891 ft 533 kts 97°
2026-04-25 23:27 22.94526 51.74820 38893 ft 533 kts 97°
2026-04-25 23:28 22.93252 51.82749 38884 ft 533 kts 97°
2026-04-25 23:28 22.91973 51.90679 38883 ft 533 kts 97°
2026-04-25 23:29 22.90691 51.98598 38883 ft 533 kts 97°
2026-04-25 23:29 22.89405 52.06520 38885 ft 534 kts 97°
2026-04-25 23:30 22.88114 52.14453 38878 ft 534 kts 97°
2026-04-25 23:30 22.86818 52.22384 38884 ft 534 kts 97°
2026-04-25 23:31 22.85518 52.30311 38884 ft 533 kts 97°
2026-04-25 23:31 22.84218 52.38222 38884 ft 533 kts 97°
2026-04-25 23:32 22.82917 52.46128 38879 ft 533 kts 97°
2026-04-25 23:32 22.82287 52.54084 38885 ft 528 kts 87°
2026-04-25 23:33 22.82110 52.62042 38887 ft 528 kts 88°
2026-04-25 23:33 22.81908 52.70005 38880 ft 528 kts 88°
2026-04-25 23:34 22.81697 52.77964 38878 ft 528 kts 88°
2026-04-25 23:34 22.81482 52.85923 38875 ft 528 kts 88°
2026-04-25 23:35 22.81264 52.93885 38874 ft 528 kts 88°
2026-04-25 23:35 22.81044 53.01790 38890 ft 528 kts 88°
2026-04-25 23:36 22.80818 53.09735 38891 ft 527 kts 88°
2026-04-25 23:36 22.80589 53.17670 38881 ft 526 kts 88°
2026-04-25 23:37 22.80357 53.25601 38889 ft 526 kts 88°
2026-04-25 23:37 22.80120 53.33523 38875 ft 527 kts 88°
2026-04-25 23:38 22.79879 53.41459 38885 ft 527 kts 88°
2026-04-25 23:38 22.79635 53.49394 38879 ft 527 kts 88°
2026-04-25 23:39 22.79386 53.57324 38881 ft 527 kts 88°
2026-04-25 23:39 22.79133 53.65256 38886 ft 527 kts 88°
2026-04-25 23:40 22.78876 53.73199 38884 ft 527 kts 88°
2026-04-25 23:40 22.78617 53.81128 38883 ft 527 kts 88°
2026-04-25 23:41 22.78352 53.89057 38876 ft 526 kts 88°
2026-04-25 23:41 22.78164 53.96968 38875 ft 522 kts 83°
2026-04-25 23:42 22.79037 54.04703 38884 ft 515 kts 72°
2026-04-25 23:42 22.80612 54.12265 38875 ft 514 kts 72°
2026-04-25 23:43 22.82150 54.19837 38876 ft 513 kts 72°
2026-04-25 23:43 22.83669 54.27351 38871 ft 514 kts 72°
2026-04-25 23:44 22.85209 54.34971 38876 ft 514 kts 72°
2026-04-25 23:44 22.86737 54.42547 38879 ft 514 kts 72°
2026-04-25 23:45 22.88260 54.50121 38881 ft 514 kts 72°
2026-04-25 23:45 22.89770 54.57645 38868 ft 515 kts 72°
2026-04-25 23:46 22.91301 54.65296 38864 ft 515 kts 72°
2026-04-25 23:46 22.92804 54.72826 38868 ft 515 kts 72°
2026-04-25 23:47 22.94318 54.80429 38863 ft 516 kts 72°
2026-04-25 23:47 22.95829 54.88037 38863 ft 516 kts 72°
2026-04-25 23:48 22.97314 54.95539 38861 ft 516 kts 72°
2026-04-25 23:48 22.98818 55.03153 38868 ft 516 kts 72°
2026-04-25 23:49 23.00323 55.10770 38868 ft 515 kts 71°
2026-04-25 23:49 23.01387 55.14442 38866 ft 506 kts 60°
2026-04-25 23:49 23.02973 55.17798 38868 ft 495 kts 50°
2026-04-25 23:50 23.07393 55.23292 38869 ft 475 kts 31°
2026-04-25 23:50 23.12913 55.26922 38875 ft 456 kts 14°
2026-04-25 23:51 23.18920 55.28863 38865 ft 449 kts
2026-04-25 23:51 23.24965 55.30627 38873 ft 450 kts
2026-04-25 23:52 23.31011 55.32413 38877 ft 451 kts
2026-04-25 23:52 23.37069 55.34202 38879 ft 451 kts
2026-04-25 23:53 23.43077 55.35978 38887 ft 451 kts
2026-04-25 23:53 23.49147 55.37773 38885 ft 452 kts
2026-04-25 23:54 23.55215 55.39568 38887 ft 452 kts
2026-04-25 23:54 23.58260 55.40469 38696 ft 453 kts
2026-04-25 23:54 23.61300 55.41368 38412 ft 453 kts
2026-04-25 23:54 23.64343 55.42269 38093 ft 454 kts
2026-04-25 23:55 23.67397 55.43172 37766 ft 456 kts
2026-04-25 23:55 23.70464 55.44079 37454 ft 458 kts
2026-04-25 23:55 23.73547 55.44992 37119 ft 461 kts
2026-04-25 23:55 23.76652 55.45913 36741 ft 464 kts
2026-04-25 23:56 23.79770 55.46839 36367 ft 465 kts
2026-04-25 23:56 23.82904 55.47770 36006 ft 467 kts
2026-04-25 23:56 23.86047 55.48704 35645 ft 469 kts
2026-04-25 23:56 23.89209 55.49643 35288 ft 471 kts 10°
2026-04-25 23:57 23.92377 55.50583 34916 ft 474 kts 10°
2026-04-25 23:57 23.95568 55.51530 34457 ft 476 kts 10°
2026-04-25 23:57 23.98723 55.52684 33997 ft 483 kts 19°
2026-04-25 23:57 24.01749 55.54384 33400 ft 494 kts 28°
2026-04-25 23:58 24.04545 55.56607 32791 ft 501 kts 37°
2026-04-25 23:58 24.07129 55.59186 32203 ft 505 kts 39°
2026-04-25 23:58 24.09732 55.61783 31611 ft 507 kts 39°
2026-04-25 23:58 24.12351 55.64380 30995 ft 508 kts 40°
2026-04-25 23:59 24.14967 55.66970 30374 ft 506 kts 40°
2026-04-25 23:59 24.17566 55.69545 29752 ft 504 kts 40°
2026-04-25 23:59 24.20152 55.72112 29041 ft 499 kts 40°
2026-04-25 23:59 24.22712 55.74656 28378 ft 495 kts 40°
2026-04-26 00:00 24.25250 55.77179 27725 ft 491 kts 40°
2026-04-26 00:00 24.27768 55.79684 27069 ft 486 kts 40°
2026-04-26 00:00 24.30265 55.82169 26438 ft 483 kts 40°
2026-04-26 00:00 24.32738 55.84631 25792 ft 479 kts 40°
2026-04-26 00:01 24.35195 55.87078 25172 ft 476 kts 40°
2026-04-26 00:01 24.37639 55.89513 24531 ft 473 kts 39°
2026-04-26 00:01 24.40072 55.91938 23895 ft 471 kts 39°
2026-04-26 00:01 24.42490 55.94349 23211 ft 469 kts 39°
2026-04-26 00:02 24.44902 55.96754 22458 ft 466 kts 40°
2026-04-26 00:02 24.47294 55.99139 21732 ft 463 kts 40°
2026-04-26 00:02 24.49633 56.01473 21026 ft 459 kts 40°
2026-04-26 00:02 24.51984 56.03822 20311 ft 452 kts 41°
2026-04-26 00:03 24.54277 56.06115 19630 ft 438 kts 41°
2026-04-26 00:03 24.56492 56.08335 18968 ft 425 kts 41°
2026-04-26 00:03 24.58706 56.10438 18304 ft 419 kts 35°
2026-04-26 00:03 24.61224 56.12004 17583 ft 414 kts 21°
2026-04-26 00:04 24.63956 56.12899 16817 ft 408 kts
2026-04-26 00:04 24.66743 56.13382 16085 ft 404 kts
2026-04-26 00:04 24.69511 56.13871 15374 ft 400 kts
2026-04-26 00:04 24.72240 56.14365 14669 ft 396 kts
2026-04-26 00:05 24.74945 56.14860 13982 ft 391 kts
2026-04-26 00:05 24.77621 56.15239 13244 ft 385 kts 360°
2026-04-26 00:05 24.80254 56.14987 12500 ft 378 kts 346°
2026-04-26 00:05 24.81919 56.14454 12014 ft 373 kts 337°
2026-04-26 00:06 24.85051 56.12902 11067 ft 366 kts 333°
2026-04-26 00:06 24.86610 56.12120 10624 ft 363 kts 333°
2026-04-26 00:06 24.88898 56.10985 10001 ft 360 kts 333°
2026-04-26 00:06 24.91184 56.09857 9359 ft 357 kts 334°
2026-04-26 00:07 24.93432 56.08751 8690 ft 352 kts 334°
2026-04-26 00:07 24.95629 56.07647 8051 ft 350 kts 331°
2026-04-26 00:07 24.97658 56.06213 7407 ft 345 kts 320°
2026-04-26 00:07 24.99393 56.04395 6775 ft 342 kts 310°
2026-04-26 00:08 25.00946 56.02441 6146 ft 337 kts 310°
2026-04-26 00:08 25.02488 56.00528 5496 ft 328 kts 311°
2026-04-26 00:08 25.03972 55.98703 4888 ft 312 kts 312°
2026-04-26 00:08 25.05387 55.96969 4345 ft 297 kts 312°
2026-04-26 00:09 25.06763 55.95289 3790 ft 294 kts 312°
2026-04-26 00:09 25.08096 55.93659 3407 ft 274 kts 313°
2026-04-26 00:09 25.09302 55.92172 3272 ft 246 kts 311°
2026-04-26 00:09 25.10061 55.90506 3166 ft 247 kts 284°
2026-04-26 00:10 25.10013 55.88675 3068 ft 235 kts 256°
2026-04-26 00:10 25.09164 55.87141 3028 ft 241 kts 227°
2026-04-26 00:10 25.07756 55.86189 3033 ft 236 kts 203°
2026-04-26 00:10 25.06226 55.85532 3033 ft 237 kts 205°
2026-04-26 00:11 25.04706 55.84832 3031 ft 236 kts 206°
2026-04-26 00:11 25.03205 55.84104 3027 ft 236 kts 207°
2026-04-26 00:11 25.01743 55.83258 2909 ft 240 kts 221°
2026-04-26 00:11 25.00750 55.81866 2854 ft 225 kts 251°
2026-04-26 00:12 25.00531 55.80259 2765 ft 205 kts 281°
2026-04-26 00:12 25.01074 55.78889 2637 ft 191 kts 309°
2026-04-26 00:12 25.01922 55.77805 2484 ft 182 kts 316°
2026-04-26 00:12 25.02792 55.76787 2385 ft 185 kts 312°
2026-04-26 00:13 25.03558 55.75647 2263 ft 185 kts 306°
2026-04-26 00:13 25.04247 55.74444 2138 ft 186 kts 303°
2026-04-26 00:13 25.04919 55.73222 2046 ft 187 kts 303°
2026-04-26 00:13 25.05592 55.72002 2029 ft 186 kts 303°
2026-04-26 00:14 25.06267 55.70780 2027 ft 187 kts 303°
2026-04-26 00:14 25.06947 55.69555 2025 ft 187 kts 303°
2026-04-26 00:14 25.07626 55.68330 2024 ft 187 kts 303°
2026-04-26 00:14 25.08305 55.67106 2026 ft 186 kts 303°
2026-04-26 00:15 25.08980 55.65889 2027 ft 186 kts 302°
2026-04-26 00:15 25.09647 55.64686 2026 ft 186 kts 302°
2026-04-26 00:15 25.10317 55.63474 2026 ft 185 kts 302°
2026-04-26 00:15 25.10992 55.62260 2023 ft 185 kts 302°
2026-04-26 00:16 25.11665 55.61042 2021 ft 187 kts 302°
2026-04-26 00:16 25.12343 55.59820 2018 ft 187 kts 302°
2026-04-26 00:16 25.13018 55.58599 2016 ft 186 kts 302°
2026-04-26 00:16 25.13694 55.57379 2018 ft 187 kts 302°
2026-04-26 00:17 25.14368 55.56166 2014 ft 185 kts 302°
2026-04-26 00:17 25.15040 55.54949 2014 ft 186 kts 302°
2026-04-26 00:17 25.15716 55.53732 2017 ft 185 kts 302°
2026-04-26 00:17 25.16364 55.52557 1999 ft 168 kts 302°
2026-04-26 00:18 25.16949 55.51501 2013 ft 160 kts 303°
2026-04-26 00:18 25.17526 55.50461 2007 ft 158 kts 303°
2026-04-26 00:18 25.18102 55.49423 1997 ft 159 kts 303°
2026-04-26 00:18 25.18671 55.48392 1833 ft 152 kts 302°
2026-04-26 00:19 25.19211 55.47416 1642 ft 152 kts 303°
2026-04-26 00:19 25.19761 55.46426 1434 ft 148 kts 303°
2026-04-26 00:19 25.20303 55.45448 1249 ft 150 kts 302°
2026-04-26 00:19 25.20847 55.44463 1063 ft 150 kts 301°
2026-04-26 00:20 25.21392 55.43469 885 ft 152 kts 301°
2026-04-26 00:20 25.21948 55.42474 697 ft 153 kts 301°
2026-04-26 00:20 25.22515 55.41468 521 ft 155 kts 300°
2026-04-26 00:20 25.23068 55.40445 317 ft 156 kts 300°
2026-04-26 00:21 25.23634 55.39417 95 ft 154 kts 300°
2026-04-26 00:21 25.24158 55.38457 36 ft 122 kts 301°
2026-04-26 00:21 25.24456 55.37925 28 ft 47 kts 302°
2026-04-26 00:21 25.24600 55.37604 19 ft 45 kts 282°
2026-04-26 00:22 25.24617 55.37379 19 ft 0 kts 272°
2026-04-26 00:22 25.24617 55.37377 19 ft 1 kts 272°
2026-04-26 00:22 25.24618 55.37364 19 ft 0 kts 272°
2026-04-26 00:23 25.24618 55.37358 19 ft 2 kts 272°
2026-04-26 00:23 25.24619 55.37342 20 ft 2 kts 272°
2026-04-26 00:23 25.24619 55.37323 20 ft 2 kts 272°
2026-04-26 00:23 25.24624 55.37284 28 ft 7 kts 277°
2026-04-26 00:24 25.24639 55.37239 31 ft 7 kts 298°
2026-04-26 00:24 25.24641 55.37232 32 ft 0 kts 293°
2026-04-26 00:24 25.24642 55.37229 32 ft 0 kts 293°
2026-04-26 00:25 25.24656 55.37202 32 ft 19 kts 299°
2026-04-26 00:25 25.24759 55.37015 28 ft 32 kts 302°
2026-04-26 00:25 25.24812 55.36893 30 ft 2 kts 266°
2026-04-26 00:25 25.24801 55.36849 32 ft 13 kts 246°
2026-04-26 00:26 25.24723 55.36820 33 ft 20 kts 198°
2026-04-26 00:26 25.24583 55.36733 34 ft 25 kts 212°
2026-04-26 00:26 25.24456 55.36608 34 ft 24 kts 241°
2026-04-26 00:26 25.24484 55.36437 32 ft 24 kts 301°
2026-04-26 00:27 25.24571 55.36276 30 ft 25 kts 301°
2026-04-26 00:27 25.24659 55.36120 27 ft 23 kts 301°
2026-04-26 00:27 25.24745 55.35964 27 ft 25 kts 301°
2026-04-26 00:27 25.24837 55.35798 25 ft 26 kts 301°
2026-04-26 00:28 25.24940 55.35628 19 ft 27 kts 305°
2026-04-26 00:28 25.25032 55.35476 18 ft 7 kts 302°
2026-04-26 00:28 25.25069 55.35429 18 ft 9 kts 329°
2026-04-26 00:28 25.25113 55.35453 18 ft 8 kts 39°
2026-04-26 00:29 25.25123 55.35464 18 ft 1 kts 48°
2026-04-26 00:29 25.25132 55.35470 18 ft 1 kts 32°
2026-04-26 00:29 25.25133 55.35470 18 ft 1 kts 32°
2026-04-26 00:29 25.25135 55.35471 18 ft 0 kts 32°